GW3300 Weather Reports


time (UTC)temp
C
wind
direction
speed
KPH
gust
KPH
rain 1hr
cm
rain 24hr
cm
rain mn
cm
humidity
%
barometer
mb
20260503223528 30 189 3.2 6.4 0.00 0.00 0.00 32 1009.1
20260503223021 30 181 3.2 4.8 0.00 0.00 0.00 32 1009.2
20260503222527 30 198 3.2 8.0 0.00 0.00 0.00 32 1009.3
20260503222040 30 183 3.2 6.4 0.00 0.00 0.00 32 1009.4
20260503221539 30 174 4.8 8.0 0.00 0.00 0.00 32 1009.5
20260503221042 30 115 1.6 4.8 0.00 0.00 0.00 33 1009.5
20260503220527 29 194 4.8 8.0 0.00 0.00 0.00 32 1009.7
20260503220021 29 102 1.6 8.0 0.00 0.00 0.00 33 1009.6
20260503215520 29 220 1.6 4.8 0.00 0.00 0.00 35 1009.7
20260503215023 29 211 3.2 6.4 0.00 0.00 0.00 35 1009.7
20260503214526 29 149 1.6 4.8 0.00 0.00 0.00 34 1009.8
20260503214021 29 29 1.6 4.8 0.00 0.00 0.00 35 1009.8
20260503213521 30 29 1.6 4.8 0.00 0.00 0.00 36 1009.9
20260503213027 30 264 1.6 4.8 0.00 0.00 0.00 36 1010.0
20260503212527 30 263 1.6 4.8 0.00 0.00 0.00 36 1010.0
20260503212029 29 105 1.6 4.8 0.00 0.00 0.00 37 1010.0
20260503211529 29 13 1.6 3.2 0.00 0.00 0.00 38 1010.1
20260503211025 29 11 1.6 3.2 0.00 0.00 0.00 38 1010.1
20260503210539 29 52 1.6 6.4 0.00 0.00 0.00 39 1010.1
20260503210019 29 53 1.6 4.8 0.00 0.00 0.00 39 1010.2
20260503205520 29 113 1.6 3.2 0.00 0.00 0.00 38 1010.3
20260503204523 29 196 1.6 3.2 0.00 0.00 0.00 41 1010.3
20260503204028 28 291 1.6 3.2 0.00 0.00 0.00 42 1010.4
20260503203529 28 205 1.6 4.8 0.00 0.00 0.00 43 1010.5
20260503203044 28 220 1.6 6.4 0.00 0.00 0.00 43 1010.6
20260503202542 28 196 1.6 4.8 0.00 0.00 0.00 44 1010.6
20260503202050 28 203 1.6 6.4 0.00 0.00 0.00 46 1010.7
20260503201530 28 66 1.6 4.8 0.00 0.00 0.00 46 1010.7
20260503201049 28 5 1.6 4.8 0.00 0.00 0.00 46 1010.8
20260503200522 28 353 1.6 6.4 0.00 0.00 0.00 48 1010.9
20260503200019 27 181 1.6 4.8 0.00 0.00 0.00 50 1010.9
20260503195539 27 186 3.2 6.4 0.00 0.00 0.00 52 1011.0
20260503195121 27 14 1.6 4.8 0.00 0.00 0.00 53 1011.1
20260503194528 27 215 3.2 6.4 0.00 0.00 0.00 54 1011.1
20260503194040 27 314 1.6 4.8 0.00 0.00 0.00 54 1011.1
20260503193520 27 239 3.2 6.4 0.00 0.00 0.00 56 1011.3
20260503193047 27 140 1.6 6.4 0.00 0.00 0.00 56 1011.3
20260503192536 26 293 1.6 3.2 0.00 0.00 0.00 58 1011.3
20260503192019 26 212 1.6 6.4 0.00 0.00 0.00 56 1011.4
20260503191531 26 41 1.6 4.8 0.00 0.00 0.00 58 1011.4
20260503191032 26 325 1.6 4.8 0.00 0.00 0.00 56 1011.4
20260503190521 26 336 1.6 3.2 0.00 0.00 0.00 59 1011.5
20260503190020 25 206 3.2 6.4 0.00 0.00 0.00 57 1011.7
20260503185522 25 40 3.2 6.4 0.00 0.00 0.00 60 1011.6
20260503185021 25 248 1.6 3.2 0.00 0.00 0.00 60 1011.7
20260503184519 25 263 1.6 3.2 0.00 0.00 0.00 60 1011.7
20260503184024 25 174 1.6 3.2 0.00 0.00 0.00 64 1011.8
20260503183519 24 115 3.2 4.8 0.00 0.00 0.00 62 1011.8
20260503183020 23 228 1.6 3.2 0.00 0.00 0.00 63 1011.9
20260503182521 23 219 1.6 4.8 0.00 0.00 0.00 64 1011.9
20260503182027 23 145 0.0 3.2 0.00 0.00 0.00 66 1012.0
20260503181520 22 189 1.6 4.8 0.00 0.00 0.00 66 1012.0
20260503181028 22 195 3.2 4.8 0.00 0.00 0.00 67 1012.1
20260503180542 22 229 1.6 4.8 0.00 0.00 0.00 68 1012.1
20260503180024 21 24 1.6 3.2 0.00 0.00 0.00 68 1012.2
20260503175522 21 54 1.6 3.2 0.00 0.00 0.00 67 1012.2
20260503175020 21 55 1.6 4.8 0.00 0.00 0.00 69 1012.2
20260503174527 20 280 1.6 3.2 0.00 0.00 0.00 71 1012.3
20260503174027 20 303 1.6 3.2 0.00 0.00 0.00 71 1012.3
20260503173520 20 299 1.6 3.2 0.00 0.00 0.00 71 1012.4
20260503173021 20 248 1.6 3.2 0.00 0.00 0.00 72 1012.4
20260503172544 19 58 1.6 4.8 0.00 0.00 0.00 72 1012.4
20260503172027 18 20 1.6 4.8 0.00 0.00 0.00 74 1012.4
20260503171521 18 334 0.0 3.2 0.00 0.00 0.00 76 1012.5
20260503171023 18 219 0.0 1.6 0.00 0.00 0.00 75 1012.6
20260503170530 18 171 0.0 3.2 0.00 0.00 0.00 77 1012.6
20260503150546 12 171 0.0 3.2 0.00 0.00 0.00 98 1013.0
20260503131021 10 107 0.0 1.6 0.00 0.00 0.00 97 1012.5
20260503130528 10 0.0 0.0 0.00 0.00 0.00 97 1012.4
20260503110524 11 0.0 1.6 0.00 0.00 0.00 96 1013.0
20260503081600 13 0 0.0 3.2 0.00 0.00 0.00 92 1013.2
20260503081030 13 143 0.0 1.6 0.00 0.00 0.00 92 1013.1
20260503080527 13 202 0.0 1.6 0.00 0.00 0.00 92 1013.2
20260503072522 14 177 1.6 3.2 0.00 0.00 0.00 90 1013.1
20260503072022 14 65 0.0 1.6 0.00 0.00 0.00 90 1013.1
20260503071522 14 3 0.0 1.6 0.00 0.00 0.00 90 1013.0
20260503071149 14 334 0.0 1.6 0.00 0.00 0.00 90 1013.0
20260503070519 14 308 0.0 1.6 0.00 0.00 0.00 89 1013.0
20260503055021 15 233 0.0 3.2 0.00 0.00 0.00 86 1013.6
20260503054529 15 0.0 0.0 0.00 0.00 0.00 86 1013.5
20260503054019 15 0.0 0.0 0.00 0.00 0.00 85 1013.6
20260503053520 15 0.0 0.0 0.00 0.00 0.00 85 1013.8
20260503053027 15 0.0 0.0 0.00 0.00 0.00 85 1013.8
20260503052521 16 0.0 1.6 0.00 0.00 0.00 84 1013.7
20260503052019 16 258 0.0 3.2 0.00 0.00 0.00 84 1013.6
20260503051526 16 196 1.6 3.2 0.00 0.00 0.00 83 1013.6
20260503051044 16 0.0 0.0 0.00 0.00 0.00 83 1013.6
20260503050530 16 15 0.0 3.2 0.00 0.00 0.00 82 1013.7
20260503050022 16 90 0.0 1.6 0.00 0.00 0.00 82 1013.7
20260503045525 16 0.0 1.6 0.00 0.00 0.00 81 1013.6
20260503045026 16 0.0 1.6 0.00 0.00 0.00 81 1013.7
20260503044522 16 14 0.0 1.6 0.00 0.00 0.00 80 1013.6
20260503044042 17 0.0 1.6 0.00 0.00 0.00 80 1013.6
20260503043524 17 0.0 1.6 0.00 0.00 0.00 78 1013.7
20260503043030 17 0.0 0.0 0.00 0.00 0.00 78 1013.6
20260503042523 17 328 0.0 1.6 0.00 0.00 0.00 77 1013.7
20260503042023 17 280 0.0 3.2 0.00 0.00 0.00 76 1013.7
20260503041530 18 0.0 1.6 0.00 0.00 0.00 74 1013.5
20260503041022 18 0.0 0.0 0.00 0.00 0.00 74 1013.6
20260503040521 18 0.0 1.6 0.00 0.00 0.00 73 1013.6
20260503040021 18 125 0.0 1.6 0.00 0.00 0.00 73 1013.5
20260503035529 18 317 0.0 3.2 0.00 0.00 0.00 72 1013.5
20260503035021 19 89 0.0 1.6 0.00 0.00 0.00 72 1013.4
20260503034603 19 204 0.0 3.2 0.00 0.00 0.00 71 1013.1
20260503034020 20 198 0.0 3.2 0.00 0.00 0.00 71 1013.1
20260503033534 20 108 0.0 3.2 0.00 0.00 0.00 69 1013.0
20260503033032 20 182 0.0 3.2 0.00 0.00 0.00 69 1013.0
20260503032524 20 126 0.0 3.2 0.00 0.00 0.00 68 1012.9
20260503032018 20 207 0.0 3.2 0.00 0.00 0.00 68 1012.9
20260503031529 21 110 0.0 3.2 0.00 0.00 0.00 67 1012.8
20260503031026 21 281 0.0 1.6 0.00 0.00 0.00 67 1012.7
20260503030537 21 137 1.6 4.8 0.00 0.00 0.00 66 1012.5
20260503030042 21 145 1.6 4.8 0.00 0.00 0.00 65 1012.4
20260503025522 21 185 3.2 8.0 0.00 0.00 0.00 66 1012.3
20260503025033 21 106 0.0 3.2 0.00 0.00 0.00 69 1012.2
20260503024529 21 188 0.0 1.6 0.00 0.00 0.00 69 1012.1
20260503024021 21 208 0.0 1.6 0.00 0.00 0.00 68 1011.8
20260503023523 22 154 0.0 3.2 0.00 0.00 0.00 66 1011.8
20260503023049 22 155 0.0 1.6 0.00 0.00 0.00 64 1011.7
20260503022529 22 327 0.0 1.6 0.00 0.00 0.00 64 1011.7
20260503022102 22 192 0.0 1.6 0.00 0.00 0.00 63 1011.5
20260503021529 22 0.0 1.6 0.00 0.00 0.00 62 1011.6
20260503021038 22 326 0.0 1.6 0.00 0.00 0.00 60 1011.6
20260503020521 22 130 0.0 3.2 0.00 0.00 0.00 61 1011.5
20260503020024 22 156 0.0 1.6 0.00 0.00 0.00 62 1011.5
20260503015529 22 165 0.0 1.6 0.00 0.00 0.00 61 1011.5
20260503015029 22 173 1.6 4.8 0.00 0.00 0.00 63 1011.4
20260503014518 22 177 0.0 3.2 0.00 0.00 0.00 65 1011.4
20260503014019 22 18 0.0 1.6 0.00 0.00 0.00 64 1011.5
20260503013523 22 257 0.0 1.6 0.00 0.00 0.00 62 1011.6
20260503013022 22 345 1.6 3.2 0.00 0.00 0.00 61 1011.5
20260503012525 22 167 1.6 4.8 0.00 0.00 0.00 61 1011.5
20260503012020 22 151 0.0 3.2 0.00 0.00 0.00 62 1011.6
20260503011519 22 88 0.0 3.2 0.00 0.00 0.00 61 1011.5
20260503011023 22 185 1.6 4.8 0.00 0.00 0.00 61 1011.5
20260503010524 22 49 0.0 3.2 0.00 0.00 0.00 61 1011.6
20260503010035 22 164 3.2 4.8 0.00 0.00 0.00 61 1011.5
20260503005530 22 161 0.0 4.8 0.00 0.00 0.00 62 1011.5
20260503005024 22 206 1.6 4.8 0.00 0.00 0.00 62 1011.6
20260503004521 22 173 1.6 4.8 0.00 0.00 0.00 62 1011.7
20260503004019 22 162 1.6 4.8 0.00 0.00 0.00 63 1011.6
20260503003522 22 350 0.0 3.2 0.00 0.00 0.00 64 1011.6
20260503003025 22 185 1.6 3.2 0.00 0.00 0.00 63 1011.7
20260503002518 22 183 1.6 4.8 0.00 0.00 0.00 63 1011.6
20260503002021 22 348 1.6 3.2 0.00 0.00 0.00 64 1011.6
20260503001523 22 218 1.6 3.2 0.00 0.00 0.00 65 1011.6
20260503001050 21 104 0.0 3.2 0.00 0.00 0.00 64 1011.6
20260503000542 21 317 0.0 3.2 0.00 0.00 0.00 65 1011.7
20260503000021 21 238 0.0 3.2 0.00 0.00 0.00 65 1011.8
20260502235520 21 175 3.2 9.7 0.00 0.00 0.00 65 1011.8
20260502235030 21 168 3.2 6.4 0.00 0.00 0.00 65 1011.8
20260502234529 21 47 1.6 3.2 0.00 0.00 0.00 66 1011.8
20260502234023 21 246 0.0 3.2 0.00 0.00 0.00 65 1012.0
20260502233520 21 202 1.6 3.2 0.00 0.00 0.00 65 1012.1
20260502233019 21 350 1.6 4.8 0.00 0.00 0.00 65 1012.1
20260502232521 21 334 1.6 4.8 0.00 0.00 0.00 66 1012.2
20260502232030 21 149 1.6 3.2 0.00 0.00 0.00 67 1012.3
20260502231519 20 198 1.6 4.8 0.00 0.00 0.00 66 1012.4
20260502231021 20 240 3.2 6.4 0.00 0.00 0.00 67 1012.4
20260502230523 20 193 1.6 8.0 0.00 0.00 0.00 67 1012.5
20260502230046 20 321 0.0 3.2 0.00 0.00 0.00 67 1012.6
20260502225521 20 36 0.0 3.2 0.00 0.00 0.00 68 1012.6
20260502225026 20 56 1.6 4.8 0.00 0.00 0.00 67 1012.9
20260502224524 20 94 1.6 4.8 0.00 0.00 0.00 68 1012.9
20260502224027 20 259 0.0 3.2 0.00 0.00 0.00 67 1013.0